Regional Weather Roundup
Issued by NWS

Home | Current Version | Previous Version | Text Only | Print | Product List | Glossary On
Versions: 1 2 3 4 5 6 7 8 9 10 11 12 13 14 15 16 17 18 19 20 21 22 23 24 25 26 27 28 29 30 31 32 33 34 35 36 37 38 39 40 41 42 43 44 45 46 47 48 49 50
000
ASUS43 KLMK 220810
RWRKY
KENTUCKY REGIONAL WEATHER ROUNDUP
NATIONAL WEATHER SERVICE LOUISVILLE KY
300 AM EST WED NOV 22 2017

NOTE "FAIR" INDICATES FEW OR NO CLOUDS BELOW 12,000 FEET
WITH NO SIGNIFICANT WEATHER AND/OR OBSTRUCTIONS TO VISIBILITY.

KYZ001>023-026-027-061>063-070>075-220900-
WESTERN AND SOUTH CENTRAL KENTUCKY

CITY           SKY/WX    TMP DP  RH WIND       PRES   REMARKS
PADUCAH        CLEAR     33  22  63 N12       30.26R WCI  24
HENDERSON      CLEAR     31  24  75 NW7       30.26R WCI  24
OWENSBORO      CLEAR     32  24  72 N7        30.25R WCI  26
HOPKINSVILLE   CLEAR     36  26  66 NW6       30.21R WCI  31
BOWLING GREEN  CLEAR     39  31  72 VRB7G17   30.19R WCI  34
GLASGOW        PTCLDY    38  32  79 NW8       30.16R WCI  32
$$

KYZ024-025-028>034-038-045-046-053-220900-
NORTH CENTRAL KENTUCKY

CITY           SKY/WX    TMP DP  RH WIND       PRES   REMARKS
LOUISVILLE/SDF CLEAR     35  24  64 N16       30.19R WCI  25
LOUISVILLE/LOU CLEAR     35  27  72 NW8       30.20R WCI  29
FORT KNOX      CLEAR     33  26  74 NW9       30.17R WCI  25
$$

KYZ035>037-039>044-047>052-055>060-089>105-220900-
NORTHEAST KENTUCKY

CITY           SKY/WX    TMP DP  RH WIND       PRES   REMARKS
LEXINGTON      PTCLDY    35  28  75 NW10      30.14R WCI  27
COVINGTON      PTCLDY    31  29  92 NW8       30.15R WCI  23
FRANKFORT      CLEAR     35  26  69 NW5       30.16R WCI  31
$$

KYZ054-064>069-076>088-106>120-220900-
SOUTHEAST KENTUCKY

CITY           SKY/WX    TMP DP  RH WIND       PRES   REMARKS
JACKSON        PTCLDY    45  30  55 NW5       30.07R
LONDON         CLEAR     36  30  79 CALM      30.09R
SOMERSET       CLEAR     37  30  75 CALM      30.13R
MIDDLESBORO    CLOUDY    42  32  69 CALM      30.08S
MONTICELLO     SUNNY     39  36  89 NW6       30.13R WCI  35
$$




USA.gov is the U.S. government's official web portal to all federal, state and local government web resources and services.